Weather History for Dodge City, KS

Change the Weather History Date:

Tuesday, November 6, 2012

  Actual Average Record
Temperature  
Mean Temperature 54 °F -  
Max Temperature 68 °F 57 °F 85 °F (1980)
Min Temperature 39 °F 33 °F 10 °F (1993)
Degree Days  
Heating Degree Days 12    
Growing Degree Days 4 (Base 50)    
Moisture  
Dew Point 32 °F    
Average Humidity 48    
Maximum Humidity 73    
Minimum Humidity 15    
Precipitation  
Precipitation 0.00 in - - ()
Sea Level Pressure  
Sea Level Pressure 30.13 in    
Wind  
Wind Speed 9 mph (NW)    
Max Wind Speed 21 mph    
Max Gust Speed 30 mph    
Visibility 10 miles    
Events      
Averages and records for this station are not official NWS values.
T = Trace of Precipitation, MM = Missing Value Source: NWS Daily Summary

Daily Weather History Graph

Daily Weather History Graph

Search for Another Location

Airport:

Trip Planner

Search our weather history database for the weather conditions in past years. The results will help you decide how hot, cold, wet, or windy it might be!

Date:

Astronomy

Nov. 06, 2012 Rise Set
Actual Time 7:11 AM CST 5:35 PM CST
Civil Twilight 6:43 AM CST 6:03 PM CST
Nautical Twilight 6:12 AM CST 6:34 PM CST
Astronomical Twilight 5:41 AM CST 7:05 PM CST
Moon No Moon Rise 1:05 PM CST (11/6)
Length of Visible Light 11h 19m
Length of Day
10h 24m
Waning Gibbous, 53% of the Moon is Illuminated
Nov 6
Waning Gibbous
Nov 6
Last Quarter
Nov 13
New
Nov 20
First Quarter
Nov 28
Full

Hourly Weather History & Observations

Time (CST) Temp. Windchill Dew Point Humidity Pressure Visibility Wind Dir Wind Speed Gust Speed Precip Events Conditions
12:52 AM 39.0 °F 34.8 °F 28.9 °F 67% 30.09 in 10.0 mi South 5.8 mph - N/A   Clear
1:52 AM 39.9 °F 33.9 °F 28.9 °F 65% 30.07 in 10.0 mi SSW 9.2 mph - N/A   Clear
2:52 AM 37.4 °F 30.8 °F 28.4 °F 70% 30.08 in 10.0 mi SSW 9.2 mph - N/A   Clear
3:52 AM 43.0 °F 36.4 °F 28.9 °F 58% 30.04 in 10.0 mi SW 12.7 mph - N/A   Clear
4:52 AM 41.0 °F 35.8 °F 30.9 °F 67% 30.04 in 10.0 mi SW 8.1 mph - N/A   Clear
5:52 AM 44.1 °F 38.1 °F 32.0 °F 63% 30.06 in 10.0 mi WNW 11.5 mph - N/A   Clear
6:52 AM 45.0 °F 38.5 °F 32.0 °F 60% 30.08 in 10.0 mi NW 13.8 mph - N/A   Clear
7:52 AM 48.0 °F - 34.0 °F 58% 30.12 in 10.0 mi NNW 11.5 mph - N/A   Clear
8:52 AM 54.0 °F - 36.0 °F 51% 30.15 in 10.0 mi North 15.0 mph - N/A   Clear
9:52 AM 60.1 °F - 37.9 °F 44% 30.16 in 10.0 mi North 20.7 mph 29.9 mph N/A   Clear
10:52 AM 62.1 °F - 39.0 °F 43% 30.18 in 10.0 mi NNE 17.3 mph 27.6 mph N/A   Clear
11:52 AM 64.0 °F - 37.0 °F 37% 30.17 in 10.0 mi North 19.6 mph 25.3 mph N/A   Clear
12:52 PM 66.9 °F - 34.0 °F 30% 30.14 in 10.0 mi North 15.0 mph 23.0 mph N/A   Clear
1:52 PM 66.9 °F - 30.9 °F 26% 30.12 in 10.0 mi North 10.4 mph 24.2 mph N/A   Clear
2:52 PM 66.9 °F - 30.9 °F 26% 30.12 in 10.0 mi North 9.2 mph 19.6 mph N/A   Clear
3:52 PM 66.9 °F - 32.0 °F 27% 30.11 in 10.0 mi NNW 10.4 mph - N/A   Clear
4:52 PM 64.0 °F - 33.1 °F 31% 30.12 in 10.0 mi North 8.1 mph - N/A   Clear
5:52 PM 53.1 °F - 32.0 °F 45% 30.15 in 10.0 mi North 3.5 mph - N/A   Clear
6:52 PM 48.9 °F - 32.0 °F 52% 30.17 in 10.0 mi Calm Calm - N/A   Clear
7:52 PM 46.9 °F - 30.9 °F 54% 30.17 in 10.0 mi Calm Calm - N/A   Clear
8:52 PM 48.0 °F - 32.0 °F 54% 30.17 in 10.0 mi Calm Calm - N/A   Clear
9:52 PM 45.0 °F - 32.0 °F 60% 30.17 in 10.0 mi Calm Calm - N/A   Clear
10:52 PM 39.0 °F 35.7 °F 30.9 °F 73% 30.18 in 9.0 mi SW 4.6 mph - N/A   Clear
11:52 PM 44.1 °F 41.5 °F 32.0 °F 63% 30.15 in 10.0 mi SSW 4.6 mph - N/A   Clear